PROFILE

 METAR AND TAF INFORMATION
ADDS - METARS form results

(0558 UTC 26 January 2021)
http://aviationweather.gov/metar/data/
 
OIII 260530Z 25004KT 5000 2500SE HZ FEW100 SCT200 04/M09 Q1022 A3021
OIII 260500Z 28004KT 5000 2500SE HZ NSC 02/M09 Q1022 A3020 TEMPO 3000 HZ
TAF OIII 260540Z 2606/2712 25008KT 4000 HZ NSC TEMPO 2606/2610 2000 HZ BECMG 2614/2616 6000 TEMPO 2703/2705 4000 HZ 

 AIRPORT MAP

 RUNWAY INFORMATION
Runway 09 Runway length 1554 ft Runway width 130 ft
Runway elevation 0 ft Runway displaced threshold 0 ft Runway heading 89
Runway 27 Runway length 1554 ft Runway width 130 ft
Runway elevation 0 ft Runway displaced threshold 0 ft Runway heading 269
Runway 11L Runway length 13098 ft Runway width 148 ft
Runway elevation 3962 ft Runway displaced threshold 0 ft Runway heading 109
Runway 29R Runway length 13098 ft Runway width 148 ft
Runway elevation 3797 ft Runway displaced threshold 0 ft Runway heading 289
Runway 11R Runway length 13248 ft Runway width 197 ft
Runway elevation 3949 ft Runway displaced threshold 3075 ft Runway heading 109
Runway 29L Runway length 13248 ft Runway width 197 ft
Runway elevation 3794 ft Runway displaced threshold 0 ft Runway heading 289

 AIRPORT FREQUENCIES
Type APP Name APP Frequency 119.7 MHZ
Type ATIS Name ATIS Frequency 128 MHZ
Type GND Name GND Frequency 121.7 MHZ
Type TWR Name TWR Frequency 118.1 MHZ

 AIRPORT NEAR NAVIGATION AIDS
Type TACAN Name Tehran Frequency 113300 KHZ
Type VOR-DME Name Tehran Frequency 115300 KHZ